Theta_e
304 304 305 305 305 305 306 308 309 309 310 310 311 314 319 322 320 317 318 323 328 329 328 327 325 323 327 329 330 332 334 333 332 333 335 335 334 333 332 331 332 333 333 333 333 330 328 326 325 324 324 325 325 325 325 326 325 326 324 325 327 327 325 320 318 322 324 325 326 326 325 326 325 327 328 328 327 325 323 322 321 320 319 320 321 319 326
303 305 306 307 307 306 307 309 309 309 310 310 311 315 320 320 319 319 323 327 329 328 329 330 327 327 331 332 331 332 333 332 333 334 334 335 334 334 334 333 334 334 333 334 334 332 330 328 327 327 325 325 325 325 324 325 325 324 324 326 326 324 324 321 317 318 320 321 322 322 323 324 323 325 327 327 327 328 325 326 325 321 319 319 319 318 325
304 305 307 308 309 308 308 310 311 311 310 310 312 315 319 321 322 323 325 329 330 330 331 332 331 331 332 331 330 332 333 333 334 334 335 336 334 334 335 334 334 334 333 333 334 333 331 330 329 328 329 329 330 327 324 324 325 327 328 327 326 324 324 323 318 316 316 316 317 319 321 322 323 325 326 326 326 326 323 322 321 319 320 323 320 319 326
304 305 308 309 309 308 309 312 313 313 312 311 312 315 319 322 323 324 326 330 332 332 332 332 332 333 332 331 331 331 331 332 334 334 335 336 335 334 335 335 334 334 334 334 335 334 333 333 332 332 333 333 333 331 328 325 325 329 328 327 327 325 326 326 322 319 318 318 320 324 324 322 321 322 325 326 326 326 325 321 319 319 322 323 323 324 327
304 306 309 309 308 307 308 312 315 314 313 313 313 317 321 322 324 326 327 328 331 332 332 331 332 334 333 333 332 332 331 332 332 333 334 335 335 334 334 334 334 334 335 335 334 334 335 334 334 334 335 334 334 333 332 329 328 327 327 327 328 326 325 326 326 323 323 324 325 328 327 324 322 322 324 325 326 327 325 321 322 324 322 319 325 331 328
304 306 309 308 308 308 308 312 315 315 314 314 315 320 323 322 324 327 325 326 330 331 330 329 331 334 335 334 334 333 332 332 333 333 333 334 334 333 334 334 334 334 335 334 334 335 335 335 335 336 335 336 335 333 332 332 331 329 326 327 329 327 323 325 326 324 326 327 327 327 327 326 326 325 324 324 326 326 325 323 326 328 322 320 328 335 333
305 306 308 308 308 309 309 311 315 316 315 315 316 320 323 322 323 324 324 325 327 326 326 328 330 332 335 334 334 335 333 333 334 333 332 333 334 333 335 335 334 334 334 334 336 336 333 334 337 338 336 336 336 334 331 332 333 332 328 327 329 327 324 326 326 324 325 327 327 327 327 326 326 327 326 326 327 328 327 327 329 329 327 326 331 333 335
305 305 307 308 309 310 310 311 314 315 315 315 317 319 321 322 323 324 324 324 324 324 325 327 329 332 335 335 334 334 334 334 334 333 333 333 334 334 335 335 335 334 335 335 336 336 334 334 336 335 335 336 337 335 333 332 333 331 328 329 329 326 325 329 328 322 322 325 326 326 326 325 325 327 328 328 328 328 328 327 328 330 330 331 332 332 335
305 304 306 308 309 309 309 309 312 315 315 315 317 317 318 319 320 321 323 324 324 325 325 326 328 330 333 333 334 333 333 333 332 333 333 333 334 334 334 335 335 334 335 335 335 335 335 335 335 334 334 335 335 336 334 333 334 333 331 331 330 327 327 330 327 319 318 323 325 324 326 325 323 325 328 330 328 326 327 328 331 331 330 332 331 329 335
304 304 306 308 309 309 309 309 311 314 315 315 316 317 317 319 320 321 322 325 324 324 324 324 326 329 333 333 333 332 332 332 331 332 334 334 334 334 334 334 335 335 337 336 335 335 334 335 335 335 334 336 335 336 335 334 334 334 334 331 329 327 328 327 324 318 317 323 325 324 324 321 319 324 330 330 329 328 330 332 334 333 331 331 328 331 341
305 304 304 307 308 309 310 310 311 313 315 315 315 315 316 318 320 321 322 324 323 323 323 324 326 329 332 331 331 331 331 331 331 332 334 334 334 333 334 335 335 336 336 335 333 333 334 334 335 335 336 336 336 335 335 335 335 334 335 332 329 328 327 327 326 319 317 323 325 324 320 317 320 331 334 333 332 331 329 332 333 334 334 334 334 338 346
305 304 304 305 307 308 309 310 311 312 314 315 315 314 316 318 319 321 323 324 324 322 322 324 325 326 328 329 330 331 330 329 330 330 331 332 332 333 334 335 335 336 335 333 333 334 335 335 335 335 336 336 336 336 336 335 335 335 335 333 331 329 327 329 328 322 320 326 325 318 316 320 330 338 338 336 337 334 333 332 332 335 336 336 337 341 344
304 305 305 305 306 307 309 309 310 312 313 314 315 314 315 317 317 319 321 322 322 322 321 322 323 324 325 328 329 330 330 330 330 330 330 331 332 333 334 334 333 333 331 331 333 335 335 336 336 335 336 335 336 335 334 334 334 335 335 334 333 331 329 329 329 326 325 324 320 317 320 331 338 339 337 336 337 336 334 332 332 337 337 335 338 339 342
304 305 304 305 305 306 307 308 309 311 312 313 315 314 314 315 316 318 319 320 322 323 322 320 323 326 328 328 328 328 330 331 331 331 331 332 333 334 333 331 330 330 330 332 335 336 336 336 336 335 335 334 332 332 333 334 333 333 333 333 334 332 330 329 327 328 326 319 317 321 327 331 334 336 336 336 336 337 334 329 331 335 334 335 340 340 340
304 304 304 304 305 305 305 306 308 309 310 312 313 314 313 314 315 316 318 319 321 322 321 322 324 327 327 326 326 328 329 330 331 331 331 331 332 332 331 329 329 330 332 334 335 335 337 334 330 328 328 329 328 329 332 333 333 333 332 333 333 331 334 334 327 327 329 321 317 321 321 322 329 336 339 339 338 338 335 329 329 333 332 335 340 341 339
304 304 304 304 304 304 305 305 305 307 309 310 311 312 313 313 314 315 316 318 320 321 322 324 324 324 324 324 324 326 328 329 329 330 331 331 332 331 329 328 330 332 334 336 335 335 336 334 330 327 327 329 329 329 330 332 332 332 332 333 332 329 333 337 330 326 327 322 318 319 318 323 335 339 339 339 338 339 335 327 327 334 336 336 339 341 341
303 303 304 304 304 304 304 304 304 306 308 309 310 311 312 313 314 314 315 317 318 320 321 322 322 323 324 324 325 327 327 327 328 329 330 330 331 329 328 328 331 333 334 335 336 335 333 333 331 329 329 334 332 329 330 330 329 331 331 331 331 328 329 332 327 324 324 322 319 319 323 332 341 340 336 338 339 339 332 322 326 339 341 339 340 341 341
302 303 304 304 304 304 304 304 304 304 306 308 308 310 311 312 313 313 315 316 317 319 321 320 321 323 325 324 325 325 325 325 327 328 329 330 329 327 326 327 332 334 334 335 337 335 331 331 330 327 329 335 334 331 331 331 330 332 334 330 328 327 328 328 325 323 322 322 319 321 328 337 342 339 338 340 339 335 327 324 334 347 344 341 343 342 341
303 303 303 304 304 304 304 304 304 305 305 305 307 309 310 311 311 312 313 315 316 318 320 319 319 321 321 320 321 323 323 324 326 327 328 330 328 325 325 328 331 333 335 337 337 336 333 331 332 330 331 335 336 333 334 335 334 336 338 334 328 327 327 328 327 324 323 323 321 321 328 338 340 339 340 340 334 329 329 335 344 348 344 343 344 343 344
303 303 303 303 304 304 304 305 306 306 306 305 306 308 309 310 310 311 312 313 315 316 317 317 316 317 318 318 319 321 322 324 325 326 327 328 325 324 329 333 332 332 336 337 338 337 334 334 336 335 333 337 340 336 334 337 338 338 339 337 335 334 328 324 325 327 326 323 321 320 325 336 341 338 338 340 337 335 339 346 347 345 345 345 345 346 347
302 303 303 303 303 304 305 306 307 307 307 306 306 307 308 309 309 310 310 311 312 314 316 316 316 316 316 317 317 318 319 320 322 322 323 324 323 324 329 331 330 331 335 337 337 337 336 337 338 336 335 339 340 336 334 336 337 338 340 339 338 340 334 326 329 334 330 323 323 327 332 339 340 339 340 342 341 341 344 347 345 345 346 346 347 349 347
303 303 303 303 304 305 306 307 307 307 307 307 306 307 308 309 309 309 309 309 310 312 314 314 314 314 314 315 315 316 316 317 318 318 319 321 322 322 324 327 329 331 333 334 337 337 337 337 338 337 337 339 338 337 338 336 333 336 341 337 335 340 341 336 337 341 337 333 335 340 342 342 340 341 344 345 343 342 343 345 346 346 347 348 350 348 346
302 302 302 303 303 305 306 307 307 307 307 307 307 307 308 308 309 308 309 309 310 310 311 311 311 312 313 315 315 315 315 315 315 316 317 318 320 322 324 327 330 331 332 332 334 335 336 337 337 337 338 338 337 338 339 335 334 339 341 338 336 339 341 341 343 343 341 340 342 344 344 343 341 341 343 344 344 343 343 345 346 346 346 348 348 346 347
302 302 302 303 303 305 306 307 307 307 307 306 307 307 308 308 308 308 308 309 310 312 313 314 315 316 317 318 318 317 316 316 316 316 316 316 319 323 327 329 330 331 332 331 330 331 333 335 336 336 338 338 337 338 338 335 336 339 339 337 339 339 339 342 343 342 340 339 342 344 343 344 344 343 343 343 344 343 344 346 347 345 346 347 347 347 348
302 302 303 303 304 304 306 306 306 307 307 306 306 307 308 308 308 308 309 310 310 312 314 316 317 317 316 316 317 317 317 318 318 318 317 317 317 321 326 328 327 328 330 328 328 331 333 334 334 336 338 338 336 338 339 337 337 339 338 338 339 340 341 341 341 341 342 342 343 344 343 343 346 345 345 345 343 342 343 345 344 344 344 345 345 347 348
302 303 303 303 303 304 305 306 306 306 307 307 307 308 308 307 307 308 308 309 309 311 312 313 315 317 315 314 314 316 316 316 317 318 319 318 318 319 322 324 324 326 327 327 328 331 333 333 333 334 336 336 335 336 338 338 337 338 339 338 337 337 339 340 339 340 343 342 342 343 343 342 343 344 345 345 343 341 341 342 343 343 344 344 345 346 347
301 302 303 303 303 304 305 306 305 306 307 307 307 307 307 307 307 307 308 308 310 312 313 314 316 317 314 313 313 313 314 314 315 316 317 318 319 320 321 323 324 325 326 327 329 331 333 333 333 332 333 334 335 335 337 337 336 337 338 337 337 338 340 339 338 338 339 340 343 343 342 341 342 342 343 342 341 341 341 341 343 343 342 343 345 345 345
300 300 301 303 303 304 305 305 305 306 307 307 306 306 307 307 307 307 307 307 309 311 313 313 314 313 312 313 314 314 314 314 315 315 316 316 318 320 321 322 323 324 325 327 330 333 333 332 332 332 332 333 334 335 337 337 337 337 337 336 337 339 340 338 338 337 338 341 343 342 342 343 343 342 342 340 341 341 342 343 343 343 342 342 343 343 345
300 300 300 301 303 303 304 305 305 306 306 306 306 306 307 308 308 308 308 307 308 309 309 310 312 313 313 314 314 313 314 315 315 316 317 317 317 319 320 321 322 324 325 327 329 332 333 332 332 332 332 331 333 334 335 336 336 336 338 336 336 336 336 336 338 339 339 340 342 342 343 343 343 342 341 340 341 343 343 342 342 341 341 342 341 343 344
299 300 300 300 302 303 304 305 306 306 305 306 306 307 307 309 309 308 308 308 308 308 309 310 312 314 313 313 312 312 313 315 316 316 318 318 319 320 320 321 323 324 325 327 330 332 334 333 332 331 331 330 332 333 334 334 335 335 336 336 335 335 336 337 339 340 340 340 341 342 343 343 342 342 340 340 341 342 342 341 341 341 342 341 341 342 342
299 300 301 301 301 303 303 304 305 305 305 306 307 307 308 310 309 308 308 309 308 308 309 310 312 313 313 313 313 312 313 315 316 316 317 318 319 321 321 322 324 325 326 328 331 333 333 332 331 331 332 330 330 332 333 334 334 335 336 335 335 335 336 337 339 340 340 339 339 340 341 341 340 341 340 339 340 341 340 340 339 340 341 341 340 340 339
300 301 301 301 301 302 303 304 304 305 305 307 307 306 307 308 306 305 307 309 309 308 309 311 312 315 316 317 317 315 315 317 319 319 319 320 320 321 323 323 324 325 327 328 331 332 332 332 331 332 332 330 329 331 332 333 334 335 334 334 335 333 332 333 335 336 338 339 340 340 339 340 342 342 341 339 339 340 339 337 337 338 339 339 338 338 337
300 301 301 301 302 302 302 303 303 303 304 305 305 305 305 305 304 304 306 308 309 308 309 311 312 314 316 317 318 318 319 320 321 320 321 322 322 322 323 324 325 326 328 328 330 331 331 332 331 331 331 330 330 330 331 331 333 333 332 334 334 332 331 331 332 334 336 340 341 342 341 340 341 341 339 338 339 340 339 337 337 338 339 338 336 337 337
301 301 302 302 302 302 303 303 303 303 304 304 305 306 306 305 304 304 305 307 308 308 309 310 312 315 315 316 318 320 321 322 323 322 322 324 323 323 324 324 325 328 328 328 329 330 331 331 331 332 333 332 331 330 331 332 332 332 332 332 333 332 332 332 332 332 335 337 338 340 341 340 338 338 338 338 338 339 338 338 337 337 337 335 335 335 337
301 302 302 302 302 303 303 303 303 304 305 305 305 306 305 304 304 304 305 307 308 309 310 310 311 313 315 315 318 320 320 322 324 324 324 326 325 323 323 326 327 327 328 328 329 329 330 330 330 331 332 332 331 331 333 334 333 332 333 334 333 333 334 334 332 333 335 336 336 335 337 337 338 339 338 338 337 338 338 337 336 335 335 335 334 334 335
302 302 302 302 303 303 304 304 304 305 305 305 306 305 304 305 306 305 305 306 308 310 312 312 312 313 314 315 319 321 320 321 325 326 326 327 325 323 324 327 327 327 328 329 328 328 329 330 330 329 330 332 333 333 332 331 329 329 333 335 332 331 332 333 333 334 337 338 337 335 336 338 339 339 338 338 338 337 337 337 336 335 335 336 335 334 335
302 302 302 303 303 304 304 305 305 305 305 305 305 304 305 306 307 306 306 307 308 309 310 311 312 314 315 317 320 321 321 322 325 326 326 326 325 324 324 326 326 328 329 328 328 329 330 330 329 329 329 331 333 332 332 332 331 332 335 336 333 331 333 336 338 340 340 340 340 339 338 338 338 338 338 339 338 337 337 337 335 336 337 336 334 334 335
302 303 303 303 304 304 305 305 305 305 305 304 304 304 307 308 308 308 308 308 308 309 309 309 311 313 315 316 318 320 321 323 325 326 326 325 325 325 324 325 328 329 328 328 328 330 332 331 329 328 328 330 331 333 335 335 333 333 335 334 332 333 335 337 339 342 342 340 340 340 339 339 339 338 339 339 338 338 338 338 337 338 338 334 331 332 332
303 303 303 303 304 304 305 305 304 305 306 305 305 306 309 309 309 310 310 309 309 310 310 309 311 312 313 315 317 318 319 321 324 326 327 327 327 326 326 327 329 329 327 329 330 330 330 330 329 328 329 330 331 333 333 331 330 331 330 330 330 331 331 333 338 342 340 337 337 338 338 338 339 338 338 339 339 338 339 340 338 337 334 331 329 330 330
303 303 304 304 304 304 305 305 304 304 306 307 307 308 310 310 310 311 311 310 310 312 312 311 312 313 313 314 316 318 319 320 322 325 327 327 328 330 328 327 329 328 327 329 331 330 328 329 329 329 328 329 331 333 333 333 334 333 331 331 331 330 329 333 338 341 337 334 335 336 336 336 337 337 338 338 339 338 339 339 337 334 330 330 329 329 329
304 304 304 304 305 305 305 305 305 305 307 308 308 308 310 311 311 312 312 311 311 312 313 314 314 314 314 314 316 318 320 320 322 323 325 326 329 330 328 328 330 329 327 329 331 330 328 328 330 329 329 330 333 335 335 337 337 333 330 330 331 331 331 333 335 334 333 333 333 333 334 335 335 336 337 338 338 338 338 337 334 331 329 329 330 330 330
303 304 304 304 304 304 304 305 305 306 307 308 308 309 311 312 312 313 314 313 313 314 315 315 315 317 317 316 315 316 319 320 321 322 324 327 329 329 329 330 330 327 327 329 331 329 328 329 329 329 330 335 337 335 336 338 337 331 329 330 331 330 332 333 332 332 332 333 333 332 332 333 333 333 334 336 337 336 335 334 333 331 329 330 331 332 331
303 303 303 303 304 305 305 306 307 307 307 308 309 310 311 312 312 313 314 314 315 316 317 317 317 317 318 318 317 317 319 321 322 322 324 326 328 330 331 331 329 328 330 330 329 328 328 328 327 328 333 337 337 333 333 335 333 329 328 330 330 330 331 332 332 333 332 332 333 333 332 332 333 331 332 334 334 333 334 333 331 331 330 330 331 331 331
303 303 303 304 305 306 306 307 308 308 308 308 309 310 311 312 312 313 314 315 316 316 318 319 319 319 319 319 319 319 319 320 321 323 324 325 327 329 331 330 329 329 330 329 328 328 328 327 328 332 336 338 336 332 330 329 329 329 330 330 329 329 330 330 331 332 333 332 333 333 332 333 333 332 333 334 333 333 333 332 331 330 330 330 331 332 332
303 304 304 305 305 306 306 307 308 308 309 308 309 310 311 312 312 313 314 315 316 317 318 319 320 320 321 321 320 321 321 320 321 323 324 325 327 329 329 329 329 329 329 328 328 329 327 327 330 335 337 337 336 333 329 328 328 329 330 330 330 331 331 331 331 332 332 333 334 333 332 333 333 332 333 334 333 332 332 331 329 330 330 330 332 332 332
304 304 304 304 305 305 307 307 308 308 309 309 310 310 312 313 314 314 315 316 317 318 320 321 321 321 322 321 320 321 322 322 322 323 324 326 328 329 330 330 330 328 327 328 330 328 327 328 331 334 336 338 336 330 327 328 328 328 328 330 331 331 331 333 333 332 333 333 334 333 333 333 333 333 333 333 332 332 332 330 329 329 330 331 332 332 331
304 304 304 305 305 305 307 308 308 309 310 310 311 311 312 313 315 316 316 317 317 319 320 321 321 321 322 322 321 321 323 323 324 325 325 327 328 329 330 330 330 327 327 329 329 327 327 329 333 335 337 336 332 328 326 327 327 326 327 328 329 329 331 333 333 334 333 333 333 333 333 333 333 333 333 332 331 330 330 329 329 330 331 332 332 331 330
304 304 304 304 305 306 307 308 308 310 310 311 311 312 313 314 315 317 316 317 318 319 320 320 320 321 322 323 322 322 322 323 324 325 325 326 328 329 329 329 329 329 328 327 326 326 329 332 334 334 333 330 329 329 329 328 327 326 327 328 328 329 331 332 334 334 334 333 334 333 333 334 333 333 332 331 331 330 330 330 331 331 332 331 331 330 330
303 304 304 305 306 307 308 308 308 309 310 311 311 312 313 314 315 315 315 315 317 319 320 320 320 321 321 322 322 323 324 324 323 324 325 326 328 330 330 329 329 330 329 326 326 329 332 332 331 331 329 328 327 328 329 329 328 327 327 329 330 331 332 333 335 334 334 334 334 334 333 333 333 333 331 331 331 331 331 331 331 331 331 331 331 331 330
303 304 304 305 306 307 308 309 308 309 310 311 312 312 312 313 314 314 314 314 316 318 320 321 320 319 320 321 322 323 324 324 323 324 325 326 327 328 329 329 328 328 327 326 328 330 330 330 330 330 328 327 327 328 329 330 330 329 329 331 333 333 334 334 335 335 334 334 334 334 333 333 333 332 331 332 331 332 331 331 331 331 331 330 330 330 330
303 304 304 304 305 306 307 308 308 308 308 310 311 311 311 312 313 313 312 313 314 318 320 321 320 319 319 320 322 323 324 324 324 324 325 325 325 327 329 329 328 326 327 330 331 331 331 333 334 333 330 328 329 331 332 332 331 331 331 332 333 334 335 335 335 334 335 334 334 333 333 332 331 331 331 332 331 331 331 330 330 330 330 329 328 329 330
303 304 304 305 305 306 307 307 307 307 308 309 310 310 310 311 311 311 310 311 314 317 320 319 319 318 319 321 323 324 324 324 324 325 325 325 325 326 328 328 328 329 329 329 329 331 333 334 333 333 332 331 331 332 333 332 332 332 333 333 333 334 335 334 334 334 333 333 333 333 332 332 331 332 331 331 331 331 331 330 329 329 330 330 330 330 330
Wind_Speed
15 16 17 18 18 17 17 19 20 20 19 17 15 14 9 7 9 8 8 8 3 5 7 5 5 6 1 1 3 3 2 4 5 3 3 4 3 4 4 4 4 2 2 2 2 5 5 7 8 7 8 10 5 6 12 14 13 12 9 11 13 9 6 7 7 6 7 6 7 4 4 6 8 8 7 7 6 7 8 7 4 3 5 4 5 5 0
14 15 16 17 17 16 16 17 17 17 18 17 17 13 9 11 13 9 6 4 4 7 6 5 6 5 3 4 6 5 3 4 4 4 3 2 3 4 3 2 2 2 2 3 3 2 3 5 6 5 5 4 2 3 10 13 12 11 9 9 12 9 7 8 8 7 7 8 8 8 7 6 8 8 8 9 9 9 9 6 4 5 7 6 6 5 1
13 13 15 16 17 16 15 15 15 15 15 15 15 13 10 11 8 6 4 3 4 5 2 3 4 4 5 7 5 5 4 3 3 5 5 3 4 4 2 1 2 3 3 4 4 3 2 3 3 3 4 3 4 2 9 13 14 11 10 12 12 9 8 8 8 8 8 9 9 9 9 9 8 10 10 11 12 13 10 6 5 7 7 6 7 5 2
13 12 14 16 17 16 14 14 13 14 14 13 12 10 8 7 3 3 3 3 5 4 0 3 4 3 4 6 5 5 5 3 1 4 4 2 4 5 2 2 3 4 3 5 4 3 2 1 1 1 2 2 3 3 5 12 13 5 5 12 11 6 8 10 11 11 8 8 8 6 8 10 11 12 14 13 14 15 11 7 7 7 6 5 6 5 4
13 10 13 15 16 16 14 13 13 13 13 11 10 8 6 5 3 2 1 1 5 5 2 2 2 1 3 3 3 5 5 2 2 2 2 2 5 5 2 2 3 1 3 5 4 2 2 2 1 1 2 3 1 4 5 9 10 3 5 14 12 5 8 13 15 15 12 11 8 5 6 11 13 14 16 16 15 15 13 11 9 7 7 6 5 6 9
13 10 11 14 16 16 15 13 12 12 11 8 8 6 4 4 3 4 4 3 2 3 0 4 4 2 3 2 3 4 4 3 2 2 3 4 4 3 2 1 3 5 4 4 2 2 1 3 2 3 4 7 5 3 6 5 8 8 10 14 10 6 9 13 16 17 16 15 11 6 7 10 11 13 15 15 15 15 15 15 12 9 8 5 2 6 12
14 10 11 14 15 16 15 12 12 12 9 6 7 4 3 4 4 3 4 4 4 4 5 5 5 4 2 3 3 4 4 3 1 1 4 4 1 2 3 1 5 6 4 4 3 3 1 1 3 5 6 8 7 1 3 4 5 8 12 11 9 7 7 10 14 15 15 16 13 10 10 10 10 13 15 13 13 15 15 15 13 12 9 3 2 8 9
14 10 10 13 14 14 14 12 13 13 8 5 6 5 5 5 5 5 6 6 5 5 5 5 5 4 3 4 3 3 5 2 2 3 4 4 2 1 3 5 7 5 3 4 3 4 4 2 3 6 7 7 5 3 1 2 2 6 10 9 9 8 4 5 10 10 11 14 12 11 12 11 10 11 13 14 13 14 13 12 12 12 8 5 8 11 6
14 11 9 11 14 14 14 13 13 14 10 6 7 6 6 5 4 5 7 5 2 3 4 3 4 4 4 3 1 2 3 3 5 5 5 6 5 4 6 8 7 4 2 3 2 5 5 6 7 9 9 8 7 4 2 2 2 3 7 7 8 8 5 4 7 8 9 11 12 12 12 11 11 11 12 14 14 12 11 10 10 10 5 2 7 8 2
14 12 9 10 13 14 13 13 13 13 10 8 8 8 8 5 2 3 4 4 1 2 3 3 4 3 1 1 2 3 2 4 6 4 3 4 3 4 8 9 7 5 3 2 4 8 11 12 12 13 13 13 12 9 6 6 4 3 5 6 7 9 7 5 7 8 7 9 11 11 10 10 10 9 11 15 14 12 11 8 8 10 7 4 7 3 4
13 12 9 8 11 13 11 11 12 12 11 11 10 8 9 8 5 3 4 4 2 1 3 2 2 0 3 3 3 4 4 4 4 4 2 1 2 6 8 9 6 3 3 7 10 13 17 17 14 12 15 15 14 12 9 8 7 6 6 5 6 10 10 7 7 7 6 9 10 9 9 9 5 2 5 10 12 12 12 9 10 11 9 5 3 3 6
10 12 10 8 10 12 9 9 10 11 11 12 10 7 8 9 6 4 3 4 1 1 2 1 3 4 4 4 5 5 6 6 5 5 6 7 7 7 7 6 6 4 8 13 15 16 16 13 8 8 13 16 14 13 12 10 9 8 9 8 7 9 10 7 6 6 4 6 9 10 9 6 3 3 3 3 4 7 10 9 10 11 8 5 4 6 7
9 10 11 9 9 11 9 7 8 9 8 9 9 7 8 9 6 4 4 5 3 2 3 3 3 5 4 4 5 7 7 7 7 7 8 9 8 7 4 4 7 10 13 15 15 14 10 6 5 8 11 12 11 11 11 11 9 7 10 11 8 8 9 6 4 4 4 5 8 8 5 5 6 5 5 4 3 6 7 7 6 7 5 4 4 6 7
9 9 10 9 9 11 10 8 7 7 7 6 8 8 8 7 6 5 4 3 3 3 5 4 2 3 4 4 6 7 7 6 6 5 5 6 7 6 5 6 9 12 13 12 11 9 5 3 5 7 8 7 6 5 5 7 7 5 7 11 11 8 8 6 6 5 5 7 8 5 3 5 7 5 6 7 6 7 7 6 4 2 3 4 2 5 6
9 9 9 9 9 10 11 10 8 7 7 6 6 7 7 6 5 5 3 3 4 4 4 3 4 6 7 7 6 6 5 3 3 4 4 4 5 5 5 9 11 10 9 9 7 5 4 4 5 7 7 5 5 3 4 5 4 4 6 10 12 10 7 5 6 6 5 6 7 6 6 7 6 5 7 6 3 4 6 6 4 3 5 9 6 6 7
8 9 9 10 9 9 11 11 9 8 8 7 6 7 7 5 4 3 3 3 4 3 1 5 7 8 9 7 5 4 4 3 4 4 4 4 2 4 6 10 10 7 7 7 5 3 4 4 5 6 4 3 3 3 3 5 3 2 4 9 14 13 8 6 5 5 6 7 7 7 7 4 1 5 9 7 4 5 8 7 5 7 10 11 8 7 8
8 9 9 9 10 10 11 11 10 8 9 8 8 8 7 6 4 3 3 3 5 7 6 8 8 8 6 4 2 2 5 5 4 4 3 2 3 6 10 12 7 4 6 6 5 4 5 4 4 5 2 2 1 3 2 5 5 1 3 8 13 12 8 7 6 5 7 8 7 5 3 1 1 4 9 7 5 6 8 6 3 5 8 7 6 7 8
8 9 9 9 10 10 11 11 10 8 8 9 9 9 7 7 5 3 3 5 7 8 6 5 5 5 4 4 5 6 8 7 4 4 5 4 3 8 12 12 6 2 4 5 4 5 5 3 3 6 4 2 1 2 2 4 5 3 2 6 9 9 8 7 8 8 8 8 7 3 3 3 2 4 6 5 5 5 6 4 0 2 4 5 4 6 8
8 8 9 9 9 10 10 9 9 9 7 7 8 8 7 7 6 4 4 6 7 7 6 4 6 7 6 6 8 8 7 6 5 5 5 2 5 13 13 6 3 3 4 4 4 4 5 4 4 5 5 1 2 2 2 3 4 4 3 4 6 8 7 7 8 8 7 6 6 4 3 3 3 4 4 3 4 4 3 2 0 1 4 7 5 5 7
8 9 9 8 9 9 8 8 8 9 9 8 6 6 6 7 7 6 5 5 7 12 15 13 12 12 10 9 9 8 7 6 4 5 4 3 11 16 7 4 1 5 4 3 3 2 3 3 3 2 3 1 3 3 3 4 5 4 3 3 2 2 4 7 8 6 5 6 7 5 2 3 7 7 4 1 2 2 4 4 2 2 5 7 6 6 8
8 8 8 8 8 7 7 8 9 8 8 8 6 4 5 6 6 6 7 6 7 10 10 8 8 9 9 9 10 10 10 10 8 8 9 9 11 11 3 1 5 5 3 4 3 1 2 2 0 1 1 1 2 1 3 4 4 3 2 2 2 3 2 5 4 3 4 7 6 3 1 5 8 6 2 3 3 3 2 3 4 5 5 5 6 7 8
8 8 8 8 7 7 7 8 9 9 8 7 6 3 4 6 6 7 8 9 10 13 14 13 14 15 16 16 15 15 15 16 15 12 12 12 11 8 6 6 6 3 5 7 3 1 2 3 1 1 0 2 2 3 4 4 4 2 0 2 1 4 3 4 1 2 1 0 3 4 4 6 7 3 4 5 5 3 2 3 5 5 5 5 7 10 10
9 8 8 7 7 6 7 8 9 9 9 8 5 3 4 6 7 8 8 9 11 16 20 21 20 20 18 16 15 17 18 19 19 17 16 13 11 9 8 5 3 2 4 7 6 4 4 3 2 2 1 1 1 4 5 5 3 1 1 1 2 3 3 5 2 2 4 4 6 5 5 6 6 3 5 5 4 4 4 4 5 6 6 7 10 13 14
9 8 7 7 7 7 7 7 8 8 9 8 5 4 5 6 7 8 7 7 9 12 14 13 12 11 9 6 8 11 12 14 15 15 17 16 12 7 2 1 3 2 3 7 9 7 6 4 2 2 1 1 2 3 3 3 1 2 2 2 4 3 3 4 1 2 2 2 4 5 5 6 6 5 5 5 5 5 5 5 6 8 9 11 13 15 16
8 7 7 7 7 7 7 8 7 8 9 9 4 3 5 6 7 6 5 5 6 7 7 6 8 9 9 9 9 8 8 9 10 10 12 17 18 13 4 3 4 5 7 11 11 8 7 4 2 3 1 2 1 2 1 1 2 2 3 1 2 2 4 3 1 1 2 4 5 6 7 6 5 5 6 6 6 7 7 8 11 13 14 15 16 16 16
8 7 7 7 7 7 7 8 7 7 9 8 4 1 4 5 6 6 5 5 6 6 7 8 7 7 10 12 11 10 10 12 11 11 12 14 17 17 14 11 10 9 11 12 10 8 7 4 2 3 1 1 2 3 2 1 3 3 2 2 2 4 4 2 1 2 4 5 6 6 7 7 5 5 6 7 8 11 12 13 15 16 18 18 17 15 16
8 8 8 7 7 6 7 7 7 6 6 7 6 5 5 5 6 5 4 4 5 6 7 7 7 7 12 15 13 12 14 15 14 14 15 15 15 16 15 15 13 11 11 10 8 7 6 4 2 3 2 2 3 3 2 2 3 4 2 2 2 3 2 1 2 3 2 4 5 5 4 5 7 7 8 9 11 14 16 16 16 18 20 20 18 16 16
9 9 8 8 7 7 7 7 7 6 4 4 6 8 7 4 4 5 6 6 7 7 7 10 13 16 17 14 8 7 10 12 13 14 15 16 16 17 16 15 13 10 9 9 6 5 5 3 2 2 3 4 3 2 2 3 4 4 2 1 3 4 4 4 3 1 2 4 5 3 2 5 9 9 9 11 13 15 17 17 18 20 20 20 21 20 19
9 10 9 8 8 7 7 7 8 7 6 5 6 8 7 4 4 5 6 7 7 8 10 13 15 14 11 9 7 6 7 9 11 13 13 14 16 17 17 16 14 11 9 8 7 5 5 4 4 3 4 6 5 2 2 3 4 3 1 3 5 6 4 6 7 4 3 5 3 2 3 6 10 9 10 13 13 13 14 16 19 21 20 18 20 22 21
9 10 10 9 9 8 8 8 7 7 7 7 7 6 6 4 3 4 5 6 6 5 6 8 8 8 10 13 14 11 8 9 11 13 14 14 15 16 15 14 13 12 10 9 7 5 4 3 4 4 4 7 6 4 2 2 4 3 2 4 7 7 6 7 8 6 5 6 3 2 5 8 10 10 10 13 13 12 14 16 18 19 18 17 18 19 20
10 10 10 10 9 8 9 9 7 7 7 6 5 5 5 3 1 5 5 2 6 4 5 8 10 11 13 13 12 10 9 10 12 13 14 15 15 14 14 13 13 12 11 9 7 6 4 4 5 4 0 6 6 4 3 3 4 3 1 4 7 8 9 10 10 8 7 5 1 5 6 8 10 9 10 13 14 14 16 19 20 19 18 17 18 18 18
11 11 10 10 9 9 10 9 9 8 7 5 5 6 6 6 7 6 4 1 5 4 4 6 8 7 5 4 6 7 7 8 10 12 13 14 14 14 14 14 12 12 11 9 6 6 7 7 6 4 1 3 4 4 4 4 4 2 1 3 5 7 9 12 13 11 7 2 3 4 6 8 8 7 10 13 14 15 18 20 21 21 19 18 17 17 17
11 11 10 10 10 10 10 10 10 11 11 11 11 10 8 9 11 9 4 3 4 3 3 5 5 4 3 4 5 5 7 8 10 12 13 13 14 13 14 15 13 11 11 10 7 5 6 7 6 3 0 2 3 4 4 5 5 4 1 1 3 6 8 10 13 11 5 2 3 2 5 8 7 8 13 15 14 16 19 20 20 21 19 18 18 18 17
11 10 10 9 9 9 9 9 10 10 11 12 12 10 10 10 10 9 8 7 5 3 4 5 5 4 4 6 4 4 5 6 9 12 11 12 15 14 13 13 12 10 11 12 10 7 6 6 6 3 1 1 0 3 5 7 10 10 5 1 2 3 5 6 10 9 6 4 4 2 5 9 9 10 14 15 15 16 18 19 20 21 20 18 18 18 18
10 10 9 9 9 9 9 9 9 9 10 10 10 11 12 10 8 10 11 9 6 4 5 6 6 4 5 5 3 5 3 4 7 9 8 10 14 15 12 11 10 9 10 12 11 8 6 7 7 4 3 3 3 2 3 7 15 17 11 6 4 2 2 5 7 9 10 7 0 4 6 7 8 10 12 14 16 18 19 18 19 20 19 18 17 17 17
9 9 9 8 8 8 8 9 8 7 7 8 8 9 9 7 6 10 12 10 7 6 5 5 5 4 4 5 2 1 2 5 5 6 7 8 10 14 14 10 7 8 10 10 9 8 7 10 9 6 5 5 5 7 11 15 20 22 16 12 14 11 11 15 17 17 17 13 6 7 6 6 6 8 10 13 16 19 19 18 18 18 19 19 19 19 18
9 8 8 7 6 7 8 8 8 8 8 9 9 7 6 4 5 8 11 10 10 9 7 6 5 6 6 5 3 3 3 4 3 4 8 9 8 11 13 10 6 7 8 8 8 8 8 11 9 6 5 7 9 13 18 23 26 23 16 14 20 21 19 20 21 20 16 11 8 8 7 6 6 7 9 12 16 19 20 20 19 18 19 20 21 20 19
8 8 7 6 5 5 6 6 7 7 7 9 9 7 6 7 7 7 9 9 8 10 10 8 8 10 10 7 4 4 3 1 1 3 8 10 8 9 11 9 5 6 6 7 8 9 8 7 6 6 7 10 13 16 16 16 18 17 14 12 16 20 21 19 18 16 13 9 7 7 7 6 6 7 8 10 14 17 19 20 18 17 18 22 22 21 19
7 7 7 7 6 6 6 5 5 4 3 5 8 7 6 8 7 6 8 8 6 9 11 11 12 14 12 8 8 9 6 3 4 3 5 7 6 7 9 7 5 6 6 6 8 9 7 5 5 7 7 8 12 15 17 15 12 11 12 11 12 14 16 15 14 12 9 6 6 7 6 5 6 8 8 9 12 14 16 17 16 17 21 23 22 20 19
8 7 7 7 7 7 7 6 5 4 3 6 8 6 6 8 7 5 6 6 5 7 9 10 12 16 17 13 10 7 6 6 5 4 1 3 4 4 6 6 6 7 7 6 7 9 7 5 6 7 7 7 10 13 15 14 11 9 9 9 10 12 15 16 14 11 8 6 7 7 5 4 5 6 7 9 11 12 14 16 18 21 22 21 20 19 17
8 7 7 7 7 6 6 5 5 6 6 7 7 5 4 6 7 6 5 5 5 6 9 11 10 13 16 17 13 9 7 7 6 5 4 3 4 4 5 5 6 6 7 5 7 7 6 5 5 7 6 6 10 12 12 11 11 10 9 7 7 9 14 16 16 13 10 8 8 7 6 5 5 5 6 7 10 12 14 17 21 23 21 19 18 18 16
9 9 8 7 7 7 6 6 6 7 6 5 5 4 3 4 6 6 6 6 5 5 9 12 11 10 12 15 16 12 9 7 6 5 4 3 4 5 5 4 5 5 6 6 7 6 5 5 6 7 5 6 9 11 11 9 9 10 9 7 6 7 10 13 15 14 11 9 8 8 6 5 5 5 5 6 9 12 14 17 21 23 22 20 19 18 15
9 9 8 7 8 7 6 7 8 7 5 3 3 3 4 5 5 5 5 7 7 7 8 11 11 10 10 12 13 12 8 6 6 6 4 2 3 4 4 4 5 5 4 6 6 6 7 7 6 5 7 9 9 10 9 9 9 9 8 8 7 6 7 9 12 14 13 11 10 9 8 7 6 4 3 4 8 11 12 14 18 23 25 23 22 19 15
9 8 7 6 7 6 5 6 7 7 5 4 4 5 6 7 7 6 5 5 7 8 10 11 10 9 9 11 11 10 7 6 7 6 5 4 4 4 4 5 5 3 4 5 6 6 6 6 4 4 8 9 8 8 9 9 9 8 7 8 8 8 7 7 10 13 14 12 11 10 9 8 6 5 3 4 8 10 11 14 20 26 27 25 22 18 14
8 7 5 3 4 5 4 4 5 6 5 5 5 5 7 7 7 7 5 4 4 6 9 12 12 10 10 11 11 9 8 8 8 6 4 4 4 5 5 5 5 4 5 6 6 6 6 6 4 6 8 9 9 9 10 9 8 8 7 7 8 9 9 9 10 13 15 13 12 11 10 9 7 5 4 6 9 10 12 18 25 29 28 24 19 15 13
8 7 5 3 3 4 4 2 3 4 5 6 7 8 8 7 6 6 6 6 6 7 5 7 10 10 10 10 9 9 9 9 7 6 5 4 4 4 4 4 5 6 7 6 6 7 8 6 5 8 10 10 9 9 10 8 7 7 8 8 8 9 10 10 12 14 15 14 13 12 11 10 8 6 6 9 11 13 15 21 26 27 24 19 14 12 12
6 6 6 4 3 3 4 4 5 6 6 7 9 11 10 9 10 10 8 7 7 7 6 6 8 10 9 9 8 9 9 8 6 6 6 4 2 2 3 4 5 6 7 7 7 7 6 5 7 9 10 10 9 8 8 8 8 8 8 9 10 11 11 11 13 14 15 14 14 13 12 11 9 8 9 12 15 16 18 20 21 20 17 14 12 12 13
6 5 5 3 3 3 4 4 7 9 9 8 8 9 10 10 10 10 9 8 8 8 7 6 7 7 7 8 7 8 9 8 6 6 5 3 2 2 4 6 6 5 5 7 8 6 4 6 9 10 9 9 9 8 8 9 10 10 10 10 12 13 13 14 14 14 14 15 14 13 12 11 9 10 14 18 20 19 19 18 16 15 14 14 13 13 14
7 5 4 3 4 4 4 4 6 7 9 9 8 8 9 10 11 10 9 9 9 8 7 6 5 4 4 5 6 6 7 8 6 5 5 5 4 4 5 7 7 6 6 6 6 5 6 8 9 9 9 8 8 7 8 9 11 12 12 11 12 13 14 15 15 14 14 14 13 11 11 10 11 14 19 21 21 20 18 17 16 15 15 14 14 13 13
7 6 5 5 5 4 3 3 4 5 5 6 7 6 7 8 9 8 6 5 6 6 5 4 4 3 3 4 5 6 6 6 5 5 6 6 4 2 4 6 7 6 6 6 5 7 9 9 8 7 7 6 6 7 8 9 11 13 13 13 13 14 14 14 14 14 13 12 11 10 10 11 14 19 22 22 20 19 18 17 17 17 15 13 12 12 13
5 5 7 10 11 8 4 3 4 5 5 5 6 6 7 8 8 8 8 8 7 6 4 3 3 2 3 4 5 4 5 6 6 6 6 5 3 3 5 7 6 5 5 6 7 8 8 7 6 6 6 6 6 8 9 10 12 15 15 15 15 15 15 14 14 13 13 12 12 11 11 14 19 22 22 19 17 18 18 18 17 16 14 13 12 12 12
5 6 8 11 14 12 9 8 8 8 8 8 8 8 8 8 9 10 10 9 8 6 3 3 2 3 4 5 3 2 4 6 7 6 6 5 5 6 7 5 2 4 6 7 7 7 6 6 6 7 7 8 9 10 11 12 14 16 16 16 16 16 15 15 14 14 13 13 13 13 15 18 20 21 19 17 17 18 19 18 17 15 14 13 13 12 12
Wind_Direction
334 332 332 331 328 325 329 331 330 330 331 335 339 338 331 288 286 304 293 283 270 232 227 193 206 227 190 165 220 222 253 257 264 273 256 258 248 230 245 257 251 273 319 302 224 208 212 204 210 220 210 212 211 159 178 192 185 187 204 193 187 197 214 224 232 231 223 193 156 181 241 243 237 237 236 235 221 215 231 258 282 255 239 243 253 256 109
340 336 335 333 329 328 334 337 335 333 334 337 340 339 323 296 292 288 282 278 228 229 234 213 210 205 184 207 215 209 227 259 274 280 281 302 285 253 239 235 260 318 319 287 271 262 234 207 210 230 220 195 82 141 186 191 189 192 199 181 170 185 208 213 218 219 217 213 199 194 198 213 228 224 218 226 231 231 239 254 272 261 247 244 255 266 51
343 339 339 336 331 332 339 346 342 333 334 337 336 333 319 302 283 248 255 267 222 231 277 269 233 201 205 219 213 207 210 217 279 293 288 296 305 289 258 252 281 278 283 275 260 273 278 215 200 224 218 157 96 160 201 204 206 203 196 181 171 188 203 200 216 216 204 210 210 203 202 204 218 225 218 219 229 236 242 243 238 243 243 237 248 268 46
341 340 343 339 332 333 342 351 345 335 337 337 333 331 320 306 287 216 208 203 212 214 10 289 253 221 230 225 208 225 223 190 245 285 272 281 316 305 291 309 276 230 258 275 237 226 282 251 175 191 203 134 119 148 193 213 214 193 163 181 183 205 208 200 221 231 223 223 218 211 220 213 206 213 216 218 227 232 237 242 239 243 248 240 244 279 309
339 339 343 339 333 332 344 354 349 341 341 340 337 332 305 289 317 342 311 235 214 196 165 306 281 245 266 250 216 239 240 214 220 238 249 326 325 300 265 336 315 269 285 276 234 225 257 189 139 64 33 2 299 180 184 214 211 172 171 193 194 216 215 206 219 231 237 243 230 205 231 232 218 213 215 218 224 227 230 234 233 234 243 236 216 231 253
339 339 336 334 332 333 343 354 353 347 343 348 351 333 284 279 335 354 332 307 232 201 285 347 333 284 269 266 249 248 242 237 233 231 273 300 321 296 205 126 6 357 331 279 260 335 272 171 98 37 12 350 330 175 154 177 194 197 204 202 202 221 218 209 214 223 232 240 235 213 226 239 235 232 227 220 219 222 226 231 228 222 233 249 271 243 242
339 341 334 332 331 334 344 355 357 352 349 7 12 344 304 310 319 334 326 307 307 318 324 321 299 275 260 245 241 256 258 249 267 332 288 270 285 307 251 285 7 3 341 298 306 17 5 142 60 23 351 338 334 267 153 138 160 192 202 200 205 224 225 213 214 220 226 231 229 221 228 242 244 241 239 232 225 224 226 228 222 218 224 230 274 257 244
337 338 335 334 330 331 342 352 359 360 0 34 38 12 355 346 333 338 323 295 289 300 296 282 268 243 218 223 231 264 267 278 339 314 280 263 250 303 295 321 345 356 347 312 328 57 39 341 353 346 330 329 338 344 352 53 100 193 203 194 194 209 222 212 215 224 224 222 223 221 228 240 240 235 236 234 227 219 216 215 210 212 218 203 217 235 228
336 335 334 335 331 329 338 347 359 5 10 52 58 23 4 351 328 330 320 299 284 281 271 264 259 237 218 226 264 271 261 334 337 290 255 267 285 320 328 328 331 325 309 306 360 36 359 319 315 310 300 293 297 310 317 327 345 223 212 198 186 200 213 195 210 229 219 207 214 216 219 234 237 231 229 224 216 206 201 201 201 203 205 237 247 248 191
336 336 330 330 331 332 337 346 359 7 15 46 54 26 13 6 331 321 308 289 277 283 268 243 246 243 170 31 336 298 291 345 329 286 229 233 276 344 337 325 317 301 300 332 345 341 322 306 301 292 278 270 269 268 261 263 274 252 232 220 196 203 214 199 206 224 203 185 203 212 211 222 227 221 217 213 208 200 194 195 198 189 177 208 252 266 101
338 339 329 320 328 334 340 347 357 8 19 35 40 22 18 26 27 0 300 265 244 279 271 247 243 298 48 22 332 300 302 324 318 298 278 250 319 339 327 316 305 291 344 341 322 315 306 294 287 275 261 256 254 247 241 239 229 219 232 239 210 207 216 211 208 220 193 171 187 205 209 212 208 174 201 209 207 198 190 195 205 192 176 176 192 115 113
341 344 338 321 319 328 337 342 349 3 18 29 32 22 23 33 35 16 313 279 282 298 266 296 12 356 337 321 309 297 297 310 312 297 291 293 305 314 316 317 305 307 344 335 316 311 306 291 281 260 243 242 243 236 229 226 218 208 215 230 228 211 210 211 215 224 196 163 183 203 208 198 129 100 150 183 217 205 188 195 207 196 182 165 129 118 129
341 343 342 333 317 318 324 325 334 351 7 20 28 26 24 30 34 21 333 296 289 339 315 308 331 330 317 307 306 299 294 299 297 281 274 277 283 294 316 327 312 313 326 323 310 309 305 272 254 252 236 230 233 229 227 231 229 217 211 217 227 223 211 205 211 211 184 178 197 203 186 127 111 133 158 150 190 207 189 191 200 189 191 191 137 117 126
341 340 342 343 332 322 318 305 307 325 339 1 20 24 24 29 31 24 359 306 294 331 314 289 296 345 335 325 317 302 286 284 281 262 256 264 272 285 312 326 318 314 314 311 303 298 285 243 242 242 228 228 238 239 249 247 235 229 221 211 213 231 227 203 196 206 202 198 197 185 150 153 156 160 167 171 190 199 190 193 187 172 267 257 176 129 137
339 340 341 342 335 327 320 302 287 294 307 325 353 8 17 27 26 18 5 321 302 296 284 300 3 357 334 328 332 317 289 278 284 264 240 245 266 280 316 328 319 311 306 300 293 287 276 261 246 228 212 216 231 244 287 271 220 203 224 208 201 220 243 224 205 216 223 207 195 191 198 196 180 146 146 164 188 174 179 200 190 172 241 245 213 157 149
334 335 336 336 333 330 325 313 293 279 281 293 312 333 349 4 16 12 345 313 293 278 345 1 345 324 310 304 303 313 317 327 327 291 229 207 257 305 333 335 320 306 304 290 270 274 277 260 255 250 222 189 210 228 285 296 267 173 185 195 197 208 235 253 234 223 223 210 199 201 205 211 179 127 140 157 178 162 175 208 204 175 195 214 201 158 153
330 330 333 335 335 332 325 321 308 280 266 273 287 303 320 332 348 359 332 291 274 277 303 325 313 298 297 288 262 329 342 328 316 302 255 251 343 339 339 341 329 297 302 290 254 247 258 249 266 264 226 114 231 245 301 313 298 268 159 184 194 200 215 227 220 222 231 223 210 197 178 120 59 135 142 154 179 190 201 213 191 149 165 184 180 159 158
329 331 334 335 334 330 324 326 326 301 272 262 270 288 302 302 310 334 315 285 278 278 292 324 319 307 320 328 314 323 330 319 313 315 284 270 352 345 334 337 337 307 308 300 258 237 241 239 266 261 242 66 359 284 334 323 300 294 233 191 190 196 207 210 207 211 222 225 222 201 121 105 163 156 142 144 164 202 217 209 86 63 107 123 143 151 151
325 329 333 334 334 333 331 338 344 333 309 276 262 271 280 276 278 289 289 279 267 262 269 297 310 306 312 314 302 300 306 299 297 310 283 235 2 336 313 297 311 316 313 299 259 239 234 212 211 240 239 198 26 345 337 310 282 268 255 217 197 194 195 200 209 214 217 220 226 216 146 131 172 154 134 160 192 193 170 130 55 334 91 104 114 126 137
319 322 330 334 334 337 346 353 351 343 335 320 292 272 266 267 267 262 267 270 264 270 278 279 279 282 284 287 288 295 307 297 296 327 317 328 349 335 296 184 35 336 321 297 259 244 253 217 177 213 233 181 40 6 319 285 269 266 280 279 252 219 204 202 199 199 212 213 213 220 202 156 168 164 151 190 211 132 105 119 135 93 94 105 111 116 133
315 316 324 333 336 339 350 354 348 340 335 330 324 300 273 272 268 254 252 257 263 273 277 267 259 264 262 262 266 271 277 278 287 317 317 313 330 332 304 297 334 331 350 330 279 215 330 310 94 39 262 98 52 334 271 259 245 247 293 286 297 0 303 221 183 151 212 217 199 188 130 141 162 168 118 91 103 87 84 112 101 93 104 112 114 120 134
313 314 317 323 330 336 343 345 342 337 332 332 338 321 272 271 273 267 262 260 259 260 261 263 270 272 265 262 264 262 262 266 269 278 288 294 305 303 292 307 316 333 9 345 305 181 359 323 316 332 221 143 163 224 237 247 236 214 228 240 276 16 346 283 324 76 155 245 84 95 108 132 152 137 68 85 104 95 91 92 90 107 128 128 126 128 130
309 310 311 310 314 325 332 334 334 334 331 328 325 298 270 265 266 271 277 277 274 274 276 278 281 283 279 273 268 263 260 261 260 256 256 266 285 286 273 281 303 358 26 7 352 342 332 331 342 317 260 150 222 232 224 232 246 330 16 193 93 41 330 294 307 109 108 64 61 87 109 122 136 115 80 90 100 100 107 105 103 119 129 131 135 134 131
305 304 305 303 304 312 320 323 329 336 336 328 308 275 269 267 263 271 282 283 281 288 290 277 261 267 282 274 257 259 260 257 258 253 240 237 248 262 262 8 348 349 17 2 344 320 299 308 323 282 265 43 301 264 234 221 240 354 299 202 118 75 327 308 324 152 163 97 81 90 101 112 121 113 98 98 104 106 108 109 115 123 127 129 133 133 131
300 299 299 298 299 306 315 318 324 338 348 349 337 271 269 273 270 269 269 270 278 293 302 276 246 251 272 267 251 257 265 256 250 247 233 227 232 241 259 354 345 335 333 328 321 305 289 291 276 260 293 27 332 297 305 352 14 350 306 259 98 23 327 334 89 91 82 99 97 94 100 106 109 109 104 105 113 115 113 118 123 125 128 129 130 132 131
295 294 293 294 295 301 310 316 323 339 355 6 17 305 267 269 268 259 245 257 273 265 260 269 272 273 281 276 259 246 247 245 239 239 239 235 235 240 254 272 283 299 311 308 302 297 293 289 275 273 305 31 339 319 334 343 319 302 303 6 4 304 305 333 151 141 106 113 126 126 120 116 116 113 106 108 122 125 121 123 126 126 128 129 127 127 130
291 291 291 292 293 293 299 311 322 336 355 13 21 2 323 289 275 267 241 235 255 252 249 264 277 285 289 285 268 245 243 246 243 240 242 243 243 242 246 258 271 287 300 298 291 281 273 270 284 301 339 10 328 296 300 326 305 273 266 12 348 293 301 5 213 202 139 120 142 150 143 133 130 124 116 119 129 131 127 126 128 130 131 130 125 123 128
289 288 287 289 288 283 287 301 310 318 337 2 2 350 338 314 278 268 247 230 242 265 286 294 291 293 300 298 272 236 238 240 239 239 238 239 241 238 237 245 255 265 280 289 286 269 258 273 317 332 347 347 323 267 277 294 270 249 235 53 14 349 346 339 313 296 77 98 131 140 100 117 125 124 125 130 132 133 132 132 135 137 137 135 132 131 131
289 286 282 282 281 276 277 286 292 295 305 322 331 328 319 306 290 278 260 242 243 261 286 294 288 283 288 286 262 247 242 232 229 230 231 232 234 233 232 236 239 246 259 268 269 267 267 285 315 331 345 342 322 277 271 267 242 237 64 47 10 354 344 326 319 329 46 61 86 92 73 108 127 128 132 138 138 134 134 138 140 141 139 137 137 136 136
288 286 280 275 274 273 273 277 281 286 296 311 322 308 277 256 285 309 288 254 233 241 278 292 287 286 290 285 276 267 253 235 228 226 226 228 230 228 227 229 230 235 243 246 252 264 265 263 275 285 341 352 326 271 244 263 247 234 61 25 354 353 3 352 333 324 345 0 12 108 90 106 127 131 134 143 143 137 138 142 143 142 140 140 140 140 140
284 285 280 273 269 268 269 270 276 288 296 306 316 302 276 245 320 358 351 250 205 215 269 273 273 286 292 285 276 270 253 233 227 227 226 227 228 224 220 221 222 223 226 231 239 247 246 242 240 231 341 6 337 287 262 275 254 224 82 11 355 1 10 7 356 337 323 322 194 144 117 118 130 132 140 151 150 146 147 148 148 147 144 142 142 142 142
281 282 278 272 266 264 265 266 271 281 284 277 268 278 284 276 276 303 339 162 186 211 269 273 273 280 282 274 271 264 245 224 220 223 223 221 220 216 211 212 216 216 215 222 231 230 231 234 226 205 138 8 334 295 273 265 258 252 359 2 7 21 23 12 360 347 331 294 177 150 140 144 141 136 147 155 154 151 152 152 152 151 146 142 143 144 144
278 279 275 270 265 264 265 266 267 271 272 271 272 277 285 282 273 271 259 196 191 220 254 270 280 274 272 309 300 240 211 210 211 214 216 212 207 206 205 206 210 208 204 213 224 219 215 217 209 197 341 1 334 299 272 255 266 279 268 57 17 33 40 15 345 331 318 267 282 274 156 152 144 139 148 152 151 150 151 150 150 149 146 144 146 146 145
275 276 273 268 265 267 269 269 272 273 271 272 276 280 281 278 268 251 225 201 195 220 239 252 273 272 273 295 288 186 191 217 205 201 206 201 195 200 202 195 195 199 201 210 221 220 206 200 192 184 150 80 67 276 271 276 286 287 278 280 335 18 44 3 323 302 276 275 327 12 138 146 140 141 149 151 149 149 150 149 149 150 150 150 150 150 151
273 272 269 265 267 270 273 273 273 271 268 268 268 267 268 267 252 228 212 202 207 236 232 230 246 265 270 266 216 158 183 245 219 204 205 191 189 200 200 182 182 201 203 203 215 227 211 186 178 180 176 157 168 225 257 282 288 285 271 233 220 255 263 250 245 239 238 242 210 100 134 141 133 140 152 155 155 155 153 152 155 156 154 153 153 153 155
268 266 265 268 272 275 277 276 270 261 257 256 255 257 264 267 238 212 206 208 227 254 267 256 243 241 251 254 239 108 255 244 219 208 212 197 189 198 199 189 189 200 193 193 214 229 200 176 179 196 191 179 204 220 211 221 248 265 257 206 182 188 215 221 217 218 224 222 185 141 146 144 136 147 156 159 163 164 159 156 161 162 158 156 157 158 159
262 260 259 266 274 277 276 269 257 250 242 231 234 252 259 230 189 189 200 215 231 240 260 277 257 246 265 280 308 339 293 227 200 207 211 204 192 191 197 201 195 181 184 202 222 215 183 175 193 220 208 198 219 224 211 211 226 243 243 200 182 187 202 214 215 212 209 198 167 147 150 151 151 157 161 166 172 171 167 166 169 168 164 162 163 164 165
257 254 250 252 258 264 263 241 226 239 240 219 222 248 242 197 180 182 196 214 229 226 230 242 242 246 262 270 266 288 310 334 316 253 205 197 195 191 194 201 190 176 195 216 207 191 180 181 207 235 228 214 220 227 224 219 221 229 231 214 195 195 202 207 203 192 182 174 163 157 156 157 160 166 172 179 180 179 178 176 172 168 168 169 169 167 168
246 240 237 237 235 242 254 239 220 252 272 202 204 229 223 199 197 194 189 198 218 217 216 227 235 235 238 243 251 266 277 274 282 270 194 191 204 196 192 196 186 187 213 215 182 183 200 209 211 227 232 220 220 227 232 235 236 233 231 227 214 205 203 201 193 184 180 180 173 166 166 173 178 182 187 187 184 184 181 176 172 172 174 174 173 170 169
231 228 231 233 229 236 256 259 241 252 253 197 199 222 222 204 207 200 177 188 216 214 207 218 227 224 225 233 247 252 238 229 260 304 274 214 212 195 198 197 175 185 221 217 172 181 213 222 209 221 231 221 215 220 224 228 234 232 217 209 208 204 198 192 187 182 175 163 156 159 166 171 176 186 192 190 188 182 175 176 181 181 178 177 178 174 170
215 217 227 234 232 235 249 252 232 226 221 203 203 224 228 207 210 213 199 203 222 214 204 210 215 214 218 224 230 233 230 235 260 297 293 246 211 206 211 190 167 195 228 202 159 173 217 227 216 226 229 206 199 204 204 206 213 214 201 186 184 189 190 190 189 182 169 158 158 163 163 158 161 172 181 187 186 179 179 190 194 187 178 177 177 172 169
216 219 228 246 256 253 247 238 223 215 215 213 212 223 225 208 208 215 217 224 234 215 197 202 212 216 211 210 213 220 227 230 234 252 265 244 218 225 220 183 179 217 220 172 153 176 213 220 224 226 203 167 175 188 187 183 191 199 196 184 173 172 181 190 194 189 176 166 168 172 170 166 168 171 175 188 192 191 198 209 201 184 175 174 172 170 176
225 230 239 252 257 249 235 221 210 204 207 215 209 210 217 210 205 209 217 222 229 224 202 196 205 211 205 200 203 208 214 218 223 232 247 247 227 228 218 197 202 208 178 158 173 198 205 215 229 212 168 156 165 174 173 172 183 193 194 191 188 180 176 186 196 197 191 181 177 180 181 178 180 183 193 208 206 204 210 212 195 179 174 175 176 179 190
225 230 233 237 234 225 209 193 189 193 205 216 209 209 213 207 204 211 210 195 203 213 206 197 200 203 194 190 193 196 202 210 214 218 230 239 227 216 209 204 202 182 158 176 202 209 207 216 220 154 137 147 158 161 160 166 176 184 191 200 204 203 200 198 200 201 197 189 181 182 185 184 185 193 204 210 208 204 198 190 182 178 177 178 180 184 191
218 217 215 224 224 210 194 180 184 197 212 217 211 218 223 216 211 216 216 211 232 234 210 199 205 208 192 184 188 193 193 191 190 197 221 227 211 209 212 201 186 186 197 202 202 202 207 212 195 154 143 143 146 155 163 169 173 180 190 199 204 205 207 208 205 200 195 189 183 184 187 185 186 195 203 196 192 186 178 177 178 179 178 177 179 184 189
210 207 210 231 235 213 206 202 194 200 211 216 216 224 234 240 239 233 220 221 253 270 246 214 217 214 194 181 186 192 190 185 184 197 217 216 202 212 225 205 184 195 209 206 198 203 211 208 183 163 154 146 145 159 172 178 186 194 196 195 195 193 192 194 195 193 189 184 180 182 185 184 185 194 197 183 173 168 169 174 178 178 177 178 183 189 190
214 214 216 233 246 224 221 232 234 231 231 228 223 227 239 252 257 257 249 237 246 268 279 263 248 236 219 207 200 191 187 190 193 194 199 205 214 244 239 218 199 200 204 202 202 208 207 176 151 146 143 142 151 167 179 187 196 203 204 202 198 192 186 185 187 186 183 180 179 178 180 184 189 192 182 168 158 155 160 167 172 176 180 185 190 189 181
213 212 206 217 235 218 214 246 260 253 245 239 235 241 251 256 259 265 268 261 257 265 268 257 250 246 237 231 221 196 185 192 199 192 188 194 206 212 213 209 200 193 198 205 207 205 178 143 137 138 140 146 155 166 180 190 197 203 207 207 202 195 189 186 185 182 180 178 176 174 177 184 190 187 173 161 153 152 159 166 171 179 185 186 181 173 168
220 221 218 247 263 245 243 287 293 265 241 238 249 259 261 258 261 267 266 254 251 261 265 253 250 254 239 226 220 203 187 187 191 186 185 193 200 202 204 200 188 180 191 207 205 173 142 134 135 140 147 155 162 171 183 194 198 201 202 200 195 191 187 183 181 180 179 177 176 177 179 182 182 177 169 162 157 159 165 170 172 172 172 170 167 164 165
225 234 241 251 258 251 243 271 285 270 246 244 254 265 269 268 271 278 280 270 270 277 272 245 237 252 240 215 209 199 189 189 190 185 187 193 196 200 204 199 190 185 191 193 170 141 135 140 148 153 154 161 175 184 190 196 197 194 188 182 178 177 177 177 177 177 176 176 177 179 178 176 175 173 169 166 163 162 162 162 162 161 159 159 164 169 171
219 238 244 241 242 248 258 272 284 293 294 288 289 293 292 286 286 299 316 325 317 298 261 208 199 229 233 218 207 190 180 185 191 193 194 192 182 180 196 197 190 179 171 159 141 132 134 146 160 167 169 177 187 188 189 190 186 179 174 171 170 169 169 170 172 173 174 174 175 176 176 175 175 174 171 168 166 162 158 157 159 161 159 159 162 167 168
213 233 245 243 241 247 258 265 270 277 281 285 291 294 290 289 297 306 312 313 305 286 245 191 188 216 213 206 204 185 175 183 189 193 193 189 186 195 205 205 162 130 136 135 130 128 136 149 162 170 173 177 178 174 170 168 167 165 165 166 166 166 166 167 169 171 173 173 173 175 176 175 175 174 172 170 169 167 164 161 159 160 159 156 155 156 158